Location: ???????????
(55.5758°N, 38.4970°E)
Time: 18:05:37
(UTC+00:00)

Cosmos 1741 Rocket - Pass Details

Date: 15 November 2025
Orbit: 756 x 778 km, 74.0° (Epoch: 14 December)

Event Time Altitude Azimuth Distance (km) Brightness Sun altitude
Exits shadow 02:26:53 17° 337° (NNW) 1,897 5.8 -21.3°
Maximum altitude 02:31:01 70° 59° (ENE) 832 4.3 -20.7°
Drops below altitude 10° 02:36:18 10° 143° (SE) 2,328 7.0 -20.0°
Sets 02:38:41 0° 146° (SE) 3,250 7.8 -19.7°
